| time (UTC) | temp C | wind direction | speed KPH | gust KPH | rain 1hr cm | rain 24hr cm | rain mn cm | humidity % | barometer mb |
| 20260510225522 | 19 | 240 | 11.3 | 22.5 | 0.00 | 0.56 | 0.25 | 52 | 1022.4 |
| 20260510225020 | 18 | 360 | 3.2 | 17.7 | 0.00 | 0.56 | 0.25 | 52 | 1022.5 |
| 20260510224545 | 18 | 258 | 12.9 | 17.7 | 0.00 | 0.56 | 0.25 | 53 | 1022.5 |
| 20260510224020 | 18 | 232 | 4.8 | 14.5 | 0.00 | 0.56 | 0.25 | 54 | 1022.5 |
| 20260510223526 | 17 | 0 | 4.8 | 14.5 | 0.00 | 0.56 | 0.25 | 54 | 1022.5 |
| 20260510223039 | 17 | 285 | 4.8 | 14.5 | 0.00 | 0.56 | 0.25 | 55 | 1022.6 |
| 20260510222522 | 17 | 268 | 8.0 | 17.7 | 0.00 | 0.56 | 0.25 | 55 | 1022.5 |
| 20260510222020 | 18 | 258 | 11.3 | 17.7 | 0.00 | 0.56 | 0.25 | 55 | 1022.6 |
| 20260510221538 | 18 | 275 | 6.4 | 19.3 | 0.00 | 0.56 | 0.25 | 54 | 1022.6 |
| 20260510221022 | 18 | 284 | 11.3 | 19.3 | 0.00 | 0.56 | 0.25 | 52 | 1022.6 |
| 20260510220527 | 18 | 241 | 12.9 | 20.9 | 0.00 | 0.56 | 0.25 | 52 | 1022.6 |
| 20260510220041 | 18 | 232 | 12.9 | 33.8 | 0.00 | 0.56 | 0.25 | 53 | 1022.6 |
| 20260510215521 | 18 | 234 | 16.1 | 33.8 | 0.00 | 0.56 | 0.25 | 57 | 1022.7 |
| 20260510215021 | 17 | 147 | 3.2 | 17.7 | 0.00 | 0.56 | 0.25 | 58 | 1022.8 |
| 20260510214541 | 17 | 242 | 8.0 | 17.7 | 0.00 | 0.56 | 0.25 | 58 | 1022.8 |
| 20260510214024 | 17 | 153 | 6.4 | 16.1 | 0.00 | 0.56 | 0.25 | 59 | 1022.9 |
| 20260510213524 | 17 | 184 | 4.8 | 16.1 | 0.00 | 0.56 | 0.25 | 58 | 1022.9 |
| 20260510213045 | 17 | 235 | 11.3 | 19.3 | 0.00 | 0.56 | 0.25 | 60 | 1022.9 |
| 20260510212519 | 17 | 234 | 11.3 | 19.3 | 0.00 | 0.56 | 0.25 | 58 | 1022.9 |
| 20260510212021 | 17 | 200 | 11.3 | 17.7 | 0.00 | 0.56 | 0.25 | 59 | 1023.0 |
| 20260510211541 | 17 | 209 | 8.0 | 17.7 | 0.00 | 0.56 | 0.25 | 59 | 1023.0 |
| 20260510211022 | 17 | 229 | 6.4 | 22.5 | 0.00 | 0.56 | 0.25 | 60 | 1023.1 |
| 20260510210522 | 17 | 174 | 8.0 | 22.5 | 0.00 | 0.56 | 0.25 | 60 | 1023.0 |
| 20260510210040 | 17 | 207 | 8.0 | 22.5 | 0.00 | 0.56 | 0.25 | 59 | 1023.0 |
| 20260510205522 | 17 | 259 | 8.0 | 17.7 | 0.00 | 0.56 | 0.25 | 57 | 1023.2 |
| 20260510205022 | 17 | 229 | 8.0 | 19.3 | 0.00 | 0.56 | 0.25 | 58 | 1023.2 |
| 20260510204534 | 17 | 286 | 12.9 | 19.3 | 0.00 | 0.56 | 0.25 | 57 | 1023.3 |
| 20260510204021 | 17 | 207 | 11.3 | 19.3 | 0.00 | 0.56 | 0.25 | 60 | 1023.4 |
| 20260510203519 | 17 | 259 | 11.3 | 17.7 | 0.00 | 0.56 | 0.25 | 61 | 1023.4 |
| 20260510203041 | 17 | 207 | 8.0 | 14.5 | 0.00 | 0.56 | 0.25 | 61 | 1023.4 |
| 20260510202522 | 17 | 273 | 8.0 | 16.1 | 0.00 | 0.56 | 0.25 | 59 | 1023.4 |
| 20260510202105 | 17 | 176 | 3.2 | 29.0 | 0.00 | 0.56 | 0.25 | 61 | 1023.4 |
| 20260510201542 | 16 | 242 | 14.5 | 29.0 | 0.00 | 0.56 | 0.25 | 60 | 1023.5 |
| 20260510201022 | 17 | 244 | 11.3 | 19.3 | 0.00 | 0.56 | 0.25 | 61 | 1023.5 |
| 20260510200522 | 17 | 360 | 8.0 | 22.5 | 0.00 | 0.56 | 0.25 | 63 | 1023.6 |
| 20260510200039 | 16 | 243 | 9.7 | 22.5 | 0.00 | 0.56 | 0.25 | 63 | 1023.6 |
| 20260510195522 | 16 | 216 | 9.7 | 19.3 | 0.00 | 0.56 | 0.25 | 62 | 1023.6 |
| 20260510195021 | 16 | 255 | 8.0 | 14.5 | 0.00 | 0.56 | 0.25 | 67 | 1023.7 |
| 20260510194535 | 16 | 360 | 4.8 | 16.1 | 0.00 | 0.56 | 0.25 | 67 | 1023.8 |
| 20260510194022 | 16 | 176 | 9.7 | 17.7 | 0.00 | 0.56 | 0.25 | 66 | 1023.9 |
| 20260510193522 | 16 | 175 | 9.7 | 19.3 | 0.00 | 0.56 | 0.25 | 66 | 1023.9 |
| 20260510193036 | 16 | 244 | 12.9 | 22.5 | 0.00 | 0.56 | 0.25 | 68 | 1023.9 |
| 20260510192521 | 16 | 211 | 8.0 | 22.5 | 0.00 | 0.56 | 0.25 | 69 | 1023.9 |
| 20260510192024 | 16 | 153 | 11.3 | 33.8 | 0.00 | 0.56 | 0.25 | 68 | 1024.0 |
| 20260510191534 | 16 | 230 | 12.9 | 33.8 | 0.00 | 0.56 | 0.25 | 70 | 1024.0 |
| 20260510191019 | 15 | 195 | 11.3 | 19.3 | 0.00 | 0.56 | 0.25 | 67 | 1024.2 |
| 20260510190519 | 15 | 238 | 11.3 | 19.3 | 0.00 | 0.56 | 0.25 | 71 | 1024.2 |
| 20260510190046 | 15 | 200 | 8.0 | 19.3 | 0.00 | 0.56 | 0.25 | 70 | 1024.3 |
| 20260510185519 | 15 | 232 | 9.7 | 22.5 | 0.00 | 0.56 | 0.25 | 71 | 1024.3 |
| 20260510185022 | 15 | 267 | 8.0 | 22.5 | 0.00 | 0.56 | 0.25 | 71 | 1024.3 |
| 20260510184541 | 15 | 237 | 14.5 | 22.5 | 0.00 | 0.56 | 0.25 | 71 | 1024.5 |
| 20260510184019 | 15 | 229 | 9.7 | 17.7 | 0.00 | 0.56 | 0.25 | 74 | 1024.4 |
| 20260510183524 | 14 | 227 | 3.2 | 19.3 | 0.00 | 0.56 | 0.25 | 74 | 1024.5 |
| 20260510183043 | 14 | 153 | 9.7 | 19.3 | 0.00 | 0.56 | 0.25 | 74 | 1024.6 |
| 20260510182521 | 14 | 0 | 4.8 | 16.1 | 0.00 | 0.56 | 0.25 | 75 | 1024.6 |
| 20260510182021 | 14 | 180 | 6.4 | 17.7 | 0.00 | 0.56 | 0.25 | 75 | 1024.7 |
| 20260510181538 | 14 | 254 | 9.7 | 17.7 | 0.00 | 0.56 | 0.25 | 77 | 1024.6 |
| 20260510181022 | 14 | 158 | 9.7 | 17.7 | 0.00 | 0.56 | 0.25 | 78 | 1024.7 |
| 20260510180520 | 13 | 203 | 6.4 | 14.5 | 0.00 | 0.56 | 0.25 | 78 | 1024.7 |
| 20260510180033 | 13 | 194 | 3.2 | 12.9 | 0.00 | 0.56 | 0.25 | 77 | 1024.9 |
| 20260510175521 | 13 | 224 | 4.8 | 12.9 | 0.00 | 0.56 | 0.25 | 78 | 1025.0 |
| 20260510175022 | 13 | 200 | 6.4 | 9.7 | 0.00 | 0.56 | 0.25 | 78 | 1025.2 |
| 20260510174544 | 13 | 209 | 3.2 | 9.7 | 0.00 | 0.56 | 0.25 | 80 | 1025.3 |
| 20260510174023 | 13 | 111 | 1.6 | 11.3 | 0.00 | 0.56 | 0.25 | 79 | 1025.2 |
| 20260510173519 | 13 | 165 | 4.8 | 11.3 | 0.00 | 0.56 | 0.25 | 79 | 1025.2 |
| 20260510173044 | 13 | 163 | 0.0 | 8.0 | 0.00 | 0.56 | 0.25 | 81 | 1025.2 |
| 20260510172519 | 12 | 138 | 4.8 | 8.0 | 0.00 | 0.56 | 0.25 | 80 | 1025.3 |
| 20260510172023 | 12 | 105 | 3.2 | 8.0 | 0.00 | 0.56 | 0.25 | 81 | 1025.2 |
| 20260510171539 | 12 | 61 | 3.2 | 8.0 | 0.00 | 0.56 | 0.25 | 82 | 1025.2 |
| 20260510171021 | 12 | 269 | 3.2 | 16.1 | 0.00 | 0.56 | 0.25 | 81 | 1025.2 |
| 20260510170522 | 12 | 193 | 4.8 | 17.7 | 0.00 | 0.56 | 0.25 | 84 | 1025.2 |
| 20260510170048 | 12 | 154 | 11.3 | 19.3 | 0.00 | 0.56 | 0.25 | 86 | 1025.2 |
| 20260510165522 | 12 | 126 | 6.4 | 25.7 | 0.00 | 0.56 | 0.25 | 86 | 1025.1 |
| 20260510165023 | 12 | 148 | 4.8 | 25.7 | 0.00 | 0.56 | 0.25 | 87 | 1025.2 |
| 20260510164541 | 11 | 175 | 4.8 | 14.5 | 0.00 | 0.56 | 0.25 | 88 | 1025.1 |
| 20260510164024 | 11 | 181 | 8.0 | 14.5 | 0.00 | 0.56 | 0.25 | 88 | 1024.9 |
| 20260510163526 | 11 | 180 | 8.0 | 14.5 | 0.00 | 0.56 | 0.25 | 89 | 1024.9 |
| 20260510163041 | 11 | 120 | 3.2 | 11.3 | 0.00 | 0.56 | 0.25 | 90 | 1025.0 |
| 20260510162523 | 11 | 127 | 4.8 | 11.3 | 0.00 | 0.56 | 0.25 | 91 | 1024.9 |
| 20260510162022 | 10 | 119 | 4.8 | 9.7 | 0.00 | 0.56 | 0.25 | 91 | 1024.9 |
| 20260510161542 | 10 | 121 | 3.2 | 9.7 | 0.00 | 0.56 | 0.25 | 91 | 1024.8 |
| 20260510161023 | 10 | 139 | 1.6 | 9.7 | 0.00 | 0.56 | 0.25 | 91 | 1024.9 |
| 20260510160523 | 10 | 127 | 4.8 | 11.3 | 0.00 | 0.56 | 0.25 | 91 | 1024.9 |
| 20260510160042 | 10 | 159 | 3.2 | 11.3 | 0.00 | 0.56 | 0.25 | 91 | 1024.9 |
| 20260510155526 | 10 | 84 | 6.4 | 11.3 | 0.03 | 0.56 | 0.25 | 93 | 1025.0 |
| 20260510155022 | 10 | 66 | 1.6 | 9.7 | 0.03 | 0.56 | 0.25 | 93 | 1024.9 |
| 20260510154540 | 10 | 118 | 4.8 | 9.7 | 0.03 | 0.56 | 0.25 | 93 | 1025.1 |
| 20260510154024 | 10 | 86 | 4.8 | 11.3 | 0.08 | 0.56 | 0.25 | 93 | 1024.9 |
| 20260510153523 | 9 | 101 | 4.8 | 11.3 | 0.10 | 0.56 | 0.25 | 93 | 1025.0 |
| 20260510153037 | 9 | 56 | 6.4 | 14.5 | 0.15 | 0.56 | 0.25 | 93 | 1025.0 |
| 20260510152524 | 9 | 65 | 8.0 | 14.5 | 0.18 | 0.56 | 0.25 | 93 | 1025.0 |
| 20260510152021 | 8 | 69 | 8.0 | 12.9 | 0.18 | 0.56 | 0.25 | 94 | 1024.8 |
| 20260510151544 | 8 | 86 | 3.2 | 9.7 | 0.20 | 0.56 | 0.25 | 93 | 1024.7 |
| 20260510151023 | 8 | 86 | 3.2 | 9.7 | 0.20 | 0.56 | 0.25 | 93 | 1024.7 |
| 20260510150522 | 8 | 128 | 3.2 | 12.9 | 0.20 | 0.56 | 0.25 | 93 | 1024.6 |
| 20260510150051 | 8 | 133 | 6.4 | 14.5 | 0.20 | 0.56 | 0.25 | 92 | 1024.4 |
| 20260510145523 | 8 | 138 | 9.7 | 14.5 | 0.18 | 0.53 | 0.23 | 93 | 1024.3 |
| 20260510145025 | 8 | 140 | 11.3 | 14.5 | 0.18 | 0.53 | 0.23 | 93 | 1024.3 |
| 20260510144557 | 8 | 155 | 8.0 | 11.3 | 0.18 | 0.53 | 0.23 | 93 | 1024.4 |
| 20260510144021 | 9 | 160 | 3.2 | 9.7 | 0.13 | 0.48 | 0.18 | 93 | 1024.6 |
| 20260510143523 | 9 | 121 | 0.0 | 4.8 | 0.10 | 0.46 | 0.15 | 93 | 1024.6 |
| 20260510143045 | 9 | 38 | 0.0 | 6.4 | 0.05 | 0.41 | 0.10 | 93 | 1024.6 |
| 20260510142522 | 9 | 38 | 0.0 | 9.7 | 0.03 | 0.38 | 0.08 | 93 | 1024.5 |
| 20260510142022 | 9 | 38 | 4.8 | 9.7 | 0.03 | 0.38 | 0.08 | 93 | 1024.4 |
| 20260510141546 | 9 | 57 | 4.8 | 12.9 | 0.00 | 0.36 | 0.05 | 93 | 1024.3 |
| 20260510141024 | 9 | 34 | 3.2 | 12.9 | 0.00 | 0.36 | 0.05 | 93 | 1024.4 |
| 20260510140521 | 9 | 24 | 4.8 | 12.9 | 0.00 | 0.36 | 0.05 | 93 | 1024.5 |
| 20260510140048 | 9 | 28 | 4.8 | 11.3 | 0.00 | 0.36 | 0.05 | 93 | 1024.5 |
| 20260510135522 | 9 | 16 | 6.4 | 11.3 | 0.00 | 0.36 | 0.05 | 93 | 1024.6 |
| 20260510135022 | 9 | 18 | 4.8 | 8.0 | 0.00 | 0.36 | 0.05 | 93 | 1024.6 |
| 20260510134539 | 9 | 348 | 3.2 | 9.7 | 0.00 | 0.36 | 0.05 | 93 | 1024.6 |
| 20260510134022 | 9 | 332 | 3.2 | 12.9 | 0.00 | 0.36 | 0.05 | 93 | 1024.6 |
| 20260510133522 | 9 | 9 | 3.2 | 12.9 | 0.00 | 0.36 | 0.05 | 93 | 1024.6 |
| 20260510133034 | 9 | 352 | 4.8 | 12.9 | 0.00 | 0.36 | 0.05 | 93 | 1024.5 |
| 20260510132519 | 9 | 352 | 4.8 | 16.1 | 0.00 | 0.36 | 0.05 | 93 | 1024.5 |
| 20260510132021 | 9 | 346 | 6.4 | 16.1 | 0.00 | 0.36 | 0.05 | 93 | 1024.4 |
| 20260510131535 | 9 | 18 | 6.4 | 14.5 | 0.00 | 0.36 | 0.05 | 93 | 1024.4 |
| 20260510131021 | 9 | 313 | 6.4 | 14.5 | 0.00 | 0.36 | 0.05 | 93 | 1024.3 |
| 20260510130521 | 9 | 352 | 4.8 | 12.9 | 0.00 | 0.36 | 0.05 | 93 | 1024.3 |
| 20260510130041 | 9 | 352 | 6.4 | 12.9 | 0.00 | 0.36 | 0.05 | 93 | 1024.2 |
| 20260510125522 | 9 | 321 | 6.4 | 12.9 | 0.00 | 0.36 | 0.05 | 93 | 1024.1 |
| 20260510125023 | 9 | 336 | 6.4 | 14.5 | 0.00 | 0.36 | 0.05 | 93 | 1024.1 |
| 20260510124544 | 9 | 328 | 6.4 | 14.5 | 0.00 | 0.36 | 0.05 | 93 | 1023.9 |
| 20260510124021 | 9 | 342 | 8.0 | 14.5 | 0.00 | 0.36 | 0.05 | 93 | 1023.8 |
| 20260510123522 | 9 | 352 | 6.4 | 14.5 | 0.00 | 0.36 | 0.05 | 93 | 1023.7 |
| 20260510123039 | 9 | 342 | 6.4 | 14.5 | 0.00 | 0.36 | 0.05 | 93 | 1023.7 |
| 20260510122525 | 9 | 336 | 6.4 | 14.5 | 0.00 | 0.36 | 0.05 | 93 | 1023.6 |
| 20260510122022 | 9 | 325 | 8.0 | 14.5 | 0.00 | 0.36 | 0.05 | 93 | 1023.5 |
| 20260510121537 | 9 | 344 | 6.4 | 14.5 | 0.00 | 0.36 | 0.05 | 93 | 1023.3 |
| 20260510121022 | 9 | 27 | 4.8 | 12.9 | 0.00 | 0.36 | 0.05 | 93 | 1023.2 |
| 20260510120522 | 8 | 19 | 3.2 | 14.5 | 0.00 | 0.36 | 0.05 | 93 | 1023.0 |
| 20260510120039 | 8 | 15 | 4.8 | 16.1 | 0.00 | 0.36 | 0.05 | 93 | 1023.1 |
| 20260510115519 | 9 | 5 | 6.4 | 17.7 | 0.00 | 0.36 | 0.05 | 93 | 1023.2 |
| 20260510115023 | 9 | 329 | 9.7 | 17.7 | 0.00 | 0.36 | 0.05 | 93 | 1023.1 |
| 20260510114541 | 9 | 346 | 9.7 | 17.7 | 0.00 | 0.36 | 0.05 | 93 | 1022.9 |
| 20260510114022 | 9 | 338 | 6.4 | 14.5 | 0.00 | 0.36 | 0.05 | 93 | 1022.8 |
| 20260510113518 | 9 | 9 | 6.4 | 16.1 | 0.00 | 0.36 | 0.05 | 93 | 1022.7 |
| 20260510113039 | 9 | 346 | 8.0 | 17.7 | 0.00 | 0.36 | 0.05 | 93 | 1022.7 |
| 20260510112519 | 9 | 342 | 8.0 | 17.7 | 0.00 | 0.36 | 0.05 | 93 | 1022.6 |
| 20260510112019 | 9 | 350 | 8.0 | 14.5 | 0.00 | 0.36 | 0.05 | 93 | 1022.7 |
| 20260510111552 | 9 | 312 | 4.8 | 14.5 | 0.00 | 0.36 | 0.05 | 93 | 1022.7 |
| 20260510111021 | 9 | 327 | 6.4 | 12.9 | 0.00 | 0.36 | 0.05 | 93 | 1022.9 |
| 20260510110520 | 9 | 315 | 6.4 | 12.9 | 0.00 | 0.36 | 0.05 | 93 | 1022.9 |
| 20260510110039 | 9 | 304 | 8.0 | 14.5 | 0.00 | 0.36 | 0.05 | 93 | 1023.0 |
| 20260510105523 | 9 | 296 | 8.0 | 14.5 | 0.00 | 0.36 | 0.05 | 93 | 1022.9 |
| 20260510105022 | 9 | 284 | 9.7 | 14.5 | 0.00 | 0.36 | 0.05 | 93 | 1022.9 |
| 20260510104545 | 9 | 275 | 9.7 | 12.9 | 0.00 | 0.36 | 0.05 | 93 | 1022.9 |
| 20260510104024 | 9 | 296 | 9.7 | 12.9 | 0.00 | 0.36 | 0.05 | 92 | 1022.9 |
| 20260510103521 | 9 | 302 | 6.4 | 12.9 | 0.00 | 0.36 | 0.05 | 92 | 1022.8 |
| 20260510103044 | 9 | 292 | 8.0 | 12.9 | 0.00 | 0.36 | 0.05 | 92 | 1022.7 |
| 20260510102521 | 9 | 300 | 4.8 | 12.9 | 0.00 | 0.36 | 0.05 | 92 | 1022.6 |
| 20260510102021 | 9 | 301 | 6.4 | 14.5 | 0.00 | 0.36 | 0.05 | 92 | 1022.7 |
| 20260510101542 | 9 | 317 | 6.4 | 14.5 | 0.00 | 0.36 | 0.05 | 92 | 1022.7 |
| 20260510101021 | 9 | 319 | 8.0 | 14.5 | 0.00 | 0.36 | 0.05 | 92 | 1022.7 |
| 20260510100523 | 9 | 321 | 3.2 | 12.9 | 0.00 | 0.36 | 0.05 | 92 | 1022.6 |
| 20260510100040 | 9 | 328 | 4.8 | 12.9 | 0.00 | 0.36 | 0.05 | 92 | 1022.5 |
| 20260510095522 | 9 | 343 | 6.4 | 9.7 | 0.00 | 0.36 | 0.05 | 92 | 1022.3 |
| 20260510095020 | 9 | 352 | 3.2 | 9.7 | 0.00 | 0.36 | 0.05 | 92 | 1022.0 |
| 20260510094542 | 9 | 329 | 3.2 | 9.7 | 0.00 | 0.36 | 0.05 | 92 | 1022.1 |
| 20260510094020 | 8 | 338 | 6.4 | 11.3 | 0.00 | 0.36 | 0.05 | 91 | 1022.2 |
| 20260510093522 | 8 | 312 | 4.8 | 11.3 | 0.00 | 0.36 | 0.05 | 91 | 1022.1 |
| 20260510093038 | 8 | 346 | 4.8 | 9.7 | 0.00 | 0.36 | 0.05 | 91 | 1021.9 |
| 20260510092522 | 8 | 346 | 4.8 | 9.7 | 0.00 | 0.36 | 0.05 | 91 | 1021.9 |
| 20260510092021 | 8 | 311 | 4.8 | 9.7 | 0.00 | 0.36 | 0.05 | 91 | 1021.9 |
| 20260510091535 | 8 | 334 | 3.2 | 14.5 | 0.00 | 0.36 | 0.05 | 91 | 1021.7 |
| 20260510091021 | 9 | 319 | 4.8 | 14.5 | 0.00 | 0.36 | 0.05 | 91 | 1021.7 |
| 20260510090524 | 9 | 341 | 8.0 | 14.5 | 0.00 | 0.36 | 0.05 | 91 | 1021.5 |
| 20260510090042 | 9 | 330 | 4.8 | 8.0 | 0.00 | 0.36 | 0.05 | 91 | 1021.4 |
| 20260510085522 | 9 | 71 | 1.6 | 4.8 | 0.00 | 0.36 | 0.05 | 91 | 1021.2 |
| 20260510085021 | 9 | 71 | 1.6 | 4.8 | 0.00 | 0.36 | 0.05 | 91 | 1021.1 |
| 20260510084544 | 9 | 71 | 1.6 | 6.4 | 0.00 | 0.36 | 0.05 | 91 | 1021.0 |
| 20260510084023 | 9 | 71 | 1.6 | 11.3 | 0.03 | 0.36 | 0.05 | 91 | 1020.9 |
| 20260510083523 | 9 | 71 | 4.8 | 12.9 | 0.03 | 0.36 | 0.05 | 91 | 1020.7 |
| 20260510083039 | 9 | 77 | 8.0 | 12.9 | 0.03 | 0.36 | 0.05 | 91 | 1020.6 |
| 20260510082522 | 9 | 86 | 8.0 | 11.3 | 0.03 | 0.36 | 0.05 | 91 | 1020.5 |
| 20260510082023 | 9 | 84 | 4.8 | 12.9 | 0.03 | 0.36 | 0.05 | 90 | 1020.5 |
| 20260510081542 | 9 | 88 | 4.8 | 12.9 | 0.03 | 0.36 | 0.05 | 90 | 1020.4 |
| 20260510081021 | 9 | 90 | 8.0 | 12.9 | 0.05 | 0.36 | 0.05 | 90 | 1020.3 |
| 20260510080521 | 10 | 98 | 4.8 | 12.9 | 0.05 | 0.36 | 0.05 | 90 | 1020.3 |
| 20260510080036 | 10 | 62 | 3.2 | 16.1 | 0.05 | 0.36 | 0.05 | 90 | 1020.4 |
| 20260510075523 | 10 | 31 | 8.0 | 16.1 | 0.05 | 0.36 | 0.05 | 90 | 1020.6 |
| 20260510075047 | 10 | 51 | 11.3 | 16.1 | 0.05 | 0.36 | 0.05 | 90 | 1020.4 |
| 20260510074542 | 10 | 69 | 11.3 | 16.1 | 0.05 | 0.36 | 0.05 | 90 | 1020.2 |
| 20260510074023 | 10 | 62 | 9.7 | 17.7 | 0.03 | 0.33 | 0.03 | 90 | 1020.3 |
| 20260510073525 | 10 | 63 | 12.9 | 17.7 | 0.03 | 0.33 | 0.03 | 90 | 1020.3 |
| 20260510073041 | 10 | 56 | 11.3 | 17.7 | 0.03 | 0.33 | 0.03 | 90 | 1020.4 |
| 20260510072522 | 10 | 40 | 8.0 | 17.7 | 0.03 | 0.33 | 0.03 | 89 | 1020.4 |
| 20260510072024 | 10 | 58 | 11.3 | 20.9 | 0.03 | 0.33 | 0.03 | 89 | 1020.4 |
| 20260510071542 | 10 | 48 | 14.5 | 20.9 | 0.03 | 0.33 | 0.03 | 89 | 1020.1 |
| 20260510071024 | 10 | 50 | 11.3 | 19.3 | 0.00 | 0.30 | 0.00 | 90 | 1020.2 |
| 20260510070527 | 10 | 22 | 3.2 | 6.4 | 0.00 | 0.30 | 0.00 | 89 | 1020.8 |
| 20260510070041 | 10 | 348 | 3.2 | 9.7 | 0.00 | 0.30 | 0.00 | 89 | 1021.1 |
| 20260510065521 | 10 | 283 | 3.2 | 14.5 | 0.00 | 0.30 | 0.00 | 89 | 1021.0 |
| 20260510065023 | 10 | 266 | 8.0 | 14.5 | 0.00 | 0.30 | 0.00 | 89 | 1021.0 |
| 20260510064538 | 10 | 242 | 9.7 | 14.5 | 0.00 | 0.30 | 0.00 | 89 | 1020.9 |
| 20260510064022 | 10 | 228 | 6.4 | 9.7 | 0.00 | 0.30 | 0.00 | 88 | 1020.8 |
| 20260510063522 | 10 | 0 | 0.0 | 4.8 | 0.00 | 0.30 | 0.00 | 88 | 1020.7 |
| 20260510063040 | 10 | 27 | 1.6 | 6.4 | 0.00 | 0.30 | 0.00 | 88 | 1020.6 |
| 20260510062520 | 10 | 24 | 1.6 | 9.7 | 0.00 | 0.30 | 0.00 | 88 | 1020.5 |
| 20260510062023 | 10 | 9 | 3.2 | 16.1 | 0.00 | 0.30 | 0.00 | 88 | 1020.4 |
| 20260510061542 | 10 | 36 | 6.4 | 16.1 | 0.00 | 0.30 | 0.00 | 88 | 1020.5 |
| 20260510061024 | 10 | 5 | 9.7 | 16.1 | 0.00 | 0.30 | 0.00 | 88 | 1020.6 |
| 20260510060525 | 10 | 5 | 8.0 | 16.1 | 0.00 | 0.30 | 0.00 | 88 | 1020.5 |
| 20260510060051 | 10 | 26 | 9.7 | 16.1 | 0.00 | 0.30 | 0.00 | 88 | 1020.2 |
| 20260510055521 | 10 | 317 | 6.4 | 16.1 | 0.00 | 0.30 | 0.30 | 88 | 1020.2 |
| 20260510055024 | 10 | 46 | 8.0 | 17.7 | 0.00 | 0.30 | 0.30 | 87 | 1019.9 |
| 20260510054544 | 10 | 100 | 11.3 | 24.1 | 0.00 | 0.30 | 0.30 | 87 | 1019.6 |
| 20260510054021 | 10 | 95 | 16.1 | 24.1 | 0.00 | 0.30 | 0.30 | 87 | 1019.6 |
| 20260510053523 | 10 | 107 | 14.5 | 27.4 | 0.00 | 0.30 | 0.30 | 87 | 1019.4 |
| 20260510053038 | 10 | 101 | 19.3 | 27.4 | 0.00 | 0.30 | 0.30 | 87 | 1019.4 |
| 20260510052522 | 10 | 103 | 17.7 | 32.2 | 0.00 | 0.30 | 0.30 | 87 | 1019.2 |
| 20260510052023 | 10 | 81 | 22.5 | 32.2 | 0.00 | 0.30 | 0.30 | 87 | 1019.4 |
| 20260510051552 | 10 | 101 | 20.9 | 29.0 | 0.00 | 0.30 | 0.30 | 87 | 1019.4 |
| 20260510051024 | 10 | 97 | 16.1 | 25.7 | 0.00 | 0.30 | 0.30 | 87 | 1019.6 |
| 20260510050522 | 10 | 84 | 19.3 | 25.7 | 0.00 | 0.30 | 0.30 | 87 | 1019.9 |
| 20260510050036 | 10 | 102 | 17.7 | 25.7 | 0.03 | 0.30 | 0.30 | 87 | 1019.7 |
| 20260510045526 | 10 | 74 | 19.3 | 29.0 | 0.05 | 0.30 | 0.30 | 87 | 1019.6 |
| 20260510045023 | 10 | 98 | 22.5 | 29.0 | 0.08 | 0.30 | 0.30 | 87 | 1019.4 |
| 20260510044543 | 10 | 65 | 14.5 | 24.1 | 0.10 | 0.30 | 0.30 | 87 | 1019.4 |
| 20260510044024 | 10 | 77 | 16.1 | 30.6 | 0.13 | 0.30 | 0.30 | 87 | 1019.5 |
| 20260510043523 | 10 | 55 | 22.5 | 37.0 | 0.15 | 0.30 | 0.30 | 87 | 1019.4 |
| 20260510043104 | 10 | 74 | 25.7 | 40.2 | 0.25 | 0.30 | 0.30 | 86 | 1019.1 |
| 20260510042523 | 11 | 85 | 27.4 | 41.8 | 0.30 | 0.30 | 0.30 | 86 | 1018.8 |
| 20260510042022 | 11 | 76 | 30.6 | 43.5 | 0.30 | 0.30 | 0.30 | 86 | 1018.6 |
| 20260510041549 | 11 | 75 | 33.8 | 45.1 | 0.30 | 0.30 | 0.30 | 86 | 1018.4 |
| 20260510041023 | 11 | 61 | 35.4 | 45.1 | 0.30 | 0.30 | 0.30 | 85 | 1018.5 |
| 20260510040523 | 11 | 55 | 29.0 | 41.8 | 0.30 | 0.30 | 0.30 | 84 | 1018.7 |
| 20260510040041 | 11 | 56 | 27.4 | 41.8 | 0.28 | 0.28 | 0.28 | 84 | 1018.8 |
| 20260510035523 | 11 | 11 | 22.5 | 41.8 | 0.25 | 0.25 | 0.25 | 83 | 1019.5 |
| 20260510035024 | 12 | 18 | 25.7 | 41.8 | 0.23 | 0.23 | 0.23 | 82 | 1019.7 |
| 20260510034545 | 12 | 32 | 24.1 | 37.0 | 0.20 | 0.20 | 0.20 | 79 | 1019.8 |
| 20260510034023 | 12 | 35 | 19.3 | 37.0 | 0.18 | 0.18 | 0.18 | 77 | 1020.4 |
| 20260510033522 | 13 | 28 | 20.9 | 40.2 | 0.15 | 0.15 | 0.15 | 73 | 1020.6 |
| 20260510033041 | 13 | 33 | 17.7 | 40.2 | 0.05 | 0.05 | 0.05 | 72 | 1020.8 |
| 20260510032527 | 13 | 342 | 25.7 | 41.8 | 0.00 | 0.00 | 0.00 | 71 | 1020.7 |
| 20260510032022 | 13 | 343 | 25.7 | 41.8 | 0.00 | 0.00 | 0.00 | 69 | 1020.5 |
| 20260510031613 | 13 | 360 | 29.0 | 41.8 | 0.00 | 0.00 | 0.00 | 68 | 1020.2 |
| 20260510031022 | 14 | 314 | 19.3 | 43.5 | 0.00 | 0.00 | 0.00 | 64 | 1019.1 |
| 20260510030522 | 14 | 24 | 16.1 | 49.9 | 0.00 | 0.00 | 0.00 | 61 | 1017.5 |
| 20260510030041 | 15 | 63 | 35.4 | 49.9 | 0.00 | 0.00 | 0.00 | 60 | 1016.3 |
| 20260510025523 | 15 | 69 | 35.4 | 48.3 | 0.00 | 0.00 | 0.00 | 57 | 1015.2 |
| 20260510025025 | 15 | 77 | 32.2 | 41.8 | 0.00 | 0.00 | 0.00 | 57 | 1015.0 |
| 20260510024545 | 15 | 63 | 27.4 | 38.6 | 0.00 | 0.00 | 0.00 | 58 | 1014.7 |
| 20260510024023 | 14 | 77 | 25.7 | 33.8 | 0.00 | 0.00 | 0.00 | 59 | 1014.2 |
| 20260510023522 | 14 | 81 | 25.7 | 33.8 | 0.00 | 0.00 | 0.00 | 59 | 1013.8 |
| 20260510023047 | 14 | 80 | 20.9 | 27.4 | 0.00 | 0.00 | 0.00 | 60 | 1013.7 |
| 20260510022522 | 14 | 93 | 17.7 | 22.5 | 0.00 | 0.00 | 0.00 | 59 | 1013.8 |
| 20260510022021 | 15 | 88 | 17.7 | 22.5 | 0.00 | 0.00 | 0.00 | 59 | 1013.7 |
| 20260510021543 | 15 | 84 | 16.1 | 20.9 | 0.00 | 0.00 | 0.00 | 58 | 1013.7 |
| 20260510021022 | 15 | 103 | 14.5 | 22.5 | 0.00 | 0.00 | 0.00 | 57 | 1013.7 |
| 20260510020521 | 15 | 85 | 16.1 | 22.5 | 0.00 | 0.00 | 0.00 | 57 | 1013.5 |
| 20260510020038 | 16 | 90 | 16.1 | 24.1 | 0.00 | 0.00 | 0.00 | 56 | 1013.4 |
| 20260510015523 | 16 | 96 | 17.7 | 24.1 | 0.00 | 0.00 | 0.00 | 55 | 1013.5 |
| 20260510015023 | 16 | 96 | 17.7 | 22.5 | 0.00 | 0.00 | 0.00 | 55 | 1013.5 |
| 20260510014544 | 16 | 89 | 16.1 | 22.5 | 0.00 | 0.00 | 0.00 | 54 | 1013.4 |
| 20260510014023 | 17 | 107 | 16.1 | 22.5 | 0.00 | 0.00 | 0.00 | 54 | 1013.2 |
| 20260510013524 | 17 | 94 | 16.1 | 25.7 | 0.00 | 0.00 | 0.00 | 53 | 1013.1 |
| 20260510013038 | 17 | 90 | 16.1 | 25.7 | 0.00 | 0.00 | 0.00 | 52 | 1013.1 |
| 20260510012525 | 18 | 94 | 19.3 | 29.0 | 0.00 | 0.00 | 0.00 | 51 | 1013.0 |
| 20260510012022 | 18 | 82 | 20.9 | 29.0 | 0.00 | 0.00 | 0.00 | 50 | 1012.8 |
| 20260510011554 | 18 | 80 | 20.9 | 32.2 | 0.00 | 0.00 | 0.00 | 50 | 1012.7 |
| 20260510011025 | 19 | 74 | 22.5 | 32.2 | 0.00 | 0.00 | 0.00 | 50 | 1012.5 |
| 20260510010523 | 19 | 93 | 19.3 | 30.6 | 0.00 | 0.00 | 0.00 | 51 | 1012.4 |
| 20260510010055 | 20 | 81 | 22.5 | 32.2 | 0.00 | 0.00 | 0.00 | 49 | 1012.3 |
| 20260510005522 | 20 | 83 | 22.5 | 32.2 | 0.00 | 0.00 | 0.00 | 47 | 1012.1 |
| 20260510005022 | 20 | 81 | 16.1 | 24.1 | 0.00 | 0.00 | 0.00 | 47 | 1012.1 |
| 20260510004541 | 21 | 91 | 14.5 | 22.5 | 0.00 | 0.00 | 0.00 | 46 | 1011.8 |
| 20260510004021 | 21 | 92 | 14.5 | 25.7 | 0.00 | 0.00 | 0.00 | 45 | 1011.6 |
| 20260510003521 | 21 | 84 | 19.3 | 29.0 | 0.00 | 0.00 | 0.00 | 44 | 1011.6 |
| 20260510003039 | 21 | 86 | 19.3 | 30.6 | 0.00 | 0.00 | 0.00 | 45 | 1011.4 |
| 20260510002523 | 21 | 80 | 24.1 | 35.4 | 0.00 | 0.00 | 0.00 | 44 | 1011.4 |
| 20260510002027 | 21 | 92 | 24.1 | 45.1 | 0.00 | 0.00 | 0.00 | 45 | 1011.4 |
| 20260510001545 | 21 | 82 | 27.4 | 51.5 | 0.00 | 0.00 | 0.00 | 44 | 1011.3 |
| 20260510001023 | 21 | 80 | 32.2 | 54.7 | 0.00 | 0.00 | 0.00 | 43 | 1011.3 |
| 20260510000524 | 21 | 89 | 41.8 | 54.7 | 0.00 | 0.00 | 0.00 | 42 | 1011.2 |
| 20260510000049 | 22 | 75 | 35.4 | 54.7 | 0.00 | 0.00 | 0.00 | 41 | 1011.1 |
| 20260509235522 | 22 | 53 | 40.2 | 54.7 | 0.00 | 0.00 | 0.00 | 40 | 1011.2 |
| 20260509235022 | 23 | 83 | 33.8 | 54.7 | 0.00 | 0.00 | 0.00 | 37 | 1011.2 |
| 20260509234541 | 25 | 38 | 29.0 | 48.3 | 0.00 | 0.00 | 0.00 | 35 | 1011.3 |
| 20260509234024 | 26 | 57 | 14.5 | 30.6 | 0.00 | 0.00 | 0.00 | 32 | 1011.2 |
| 20260509233520 | 26 | 22 | 12.9 | 22.5 | 0.00 | 0.00 | 0.00 | 33 | 1011.1 |
| 20260509233039 | 25 | 61 | 8.0 | 19.3 | 0.00 | 0.00 | 0.00 | 33 | 1011.2 |
| 20260509232523 | 25 | 67 | 11.3 | 24.1 | 0.00 | 0.00 | 0.00 | 33 | 1011.2 |
| 20260509232020 | 25 | 50 | 11.3 | 24.1 | 0.00 | 0.00 | 0.00 | 34 | 1011.1 |
| 20260509231546 | 25 | 57 | 6.4 | 33.8 | 0.00 | 0.00 | 0.00 | 34 | 1011.1 |
| 20260509231022 | 25 | 52 | 14.5 | 37.0 | 0.00 | 0.00 | 0.00 | 33 | 1011.1 |
| 20260509230523 | 25 | 59 | 25.7 | 37.0 | 0.00 | 0.00 | 0.00 | 33 | 1011.0 |
| 20260509230039 | 25 | 49 | 22.5 | 29.0 | 0.00 | 0.00 | 0.00 | 34 | 1011.0 |